"Pseudo-MPEC" for C1FZMH5

Created 2026 Sep 5 10:35:04 UT using Find_Orb

Click here for an explanation of pseudo-MPECs

 
 Astrometry: 
     C1FZMH5*1C2026 09 05.18965421 42 22.108+08 51 08.32   ~955K 22.50GVNEOCPV00
     C1FZMH5 1C2026 09 05.19524221 42 23.476+08 50 23.17   ~955K 21.95GVNEOCPV00
     C1FZMH5 1C2026 09 05.20082821 42 24.851+08 49 38.06   ~955K 22.31GVNEOCPV00
     C1FZMH5 1C2026 09 05.20642021 42 26.197+08 48 53.14   ~955K 22.20GVNEOCPV00
     C1FZMH5 1C2026 09 05.30113521 42 49.118+08 36 05.15   ~957Z 22.04GVNEOCPV00
     C1FZMH5 1C2026 09 05.30187321 42 49.280+08 35 59.28   ~957Z 23.03GVNEOCPV00
     C1FZMH5 1C2026 09 05.30260721 42 49.504+08 35 53.16   ~957Z 22.63GVNEOCPV00
     C1FZMH5 1C2026 09 05.30334221 42 49.662+08 35 47.26   ~957Z 22.75GVNEOCPV00

Station data:
(V00) Kitt Peak-Bok  (N31.963125 W111.600190)  US/Arizona. Measurers T.
   Beuden, V. F. Carvajal, D. Fay, J. B. Fazekas, D. C. Fuls, A. R. Gibbs, A.
   D. Grauer, H. Gröller, J. K. Hogan, R. A. Kowalski, S. M. Larson, G. J.
   Leonard, D. Rankin, R. L. Seaman, F. C. Shelly, K. W. Wierzchoś. 2.25-m
   reflector + 4x4K mosaic CCD.

Orbital elements:  C1FZMH5
   Perihelion 2026 Sep 27.822383 +/- 38.3 TT = 19:44:13.8 (JD 2461311.322383)
Epoch 2026 Sep  5.0 TT = JDT 2461288.5   Earth MOID: 0.1356   Ju: 0.9827
M 355.271776931 +/- 22              (J2000 ecliptic)             AutoNEOCP
n   0.207174819 +/- 0.248           Peri.  195.997036 +/- 59
a   2.828642550 +/- 2.25            Node   167.168348 +/- 18
e   0.60092744 +/- 0.263            Incl.   25.254148 +/- 10
P   4.75737                H 25.24  G  0.15   U 11.8  SR
q 1.128833608 +/- 0.16    Q 4.528451492 +/- 35.4
From 8 observations 2026 Sept. 5 (2.7 hr); mean residual 0".16
Residuals in arcseconds: 
260905 V00  .25-  .08+    260905 V00  .11+  .08+    260905 V00  .34+  .06-    
260905 V00  .07-  .04-    260905 V00  .08-  .06-    260905 V00  .03+  .03+    
260905 V00  .24+  .11-    260905 V00  .34-  .08+    

Ephemerides (geocentric):
Date (UTC) HH   RA             Dec           delta  r     elong  mag " sig PA
---- --------  ------------   ------------  ------ ------ -----  --- --------
2026 09 05 11  21 43 31.194   +08 15 01.29  .16656 1.1629 156.5 22.7 78.7 112
2026 09 05 12  21 43 42.197   +08 09 18.59  .16636 1.1628 156.6 22.7 92.9 108
2026 09 05 13  21 43 53.227   +08 03 34.97  .16616 1.1627 156.7 22.7  107 105
2026 09 05 14  21 44 04.282   +07 57 50.44  .16596 1.1626 156.8 22.7  122 103
2026 09 05 15  21 44 15.363   +07 52 05.00  .16576 1.1624 156.8 22.7  137 101
2026 09 05 16  21 44 26.471   +07 46 18.65  .16556 1.1623 156.9 22.7  152  99
2026 09 05 17  21 44 37.604   +07 40 31.38  .16536 1.1622 157.0 22.7  167  97
2026 09 05 18  21 44 48.764   +07 34 43.20  .16516 1.1621 157.1 22.6  182  95
2026 09 05 19  21 44 59.950   +07 28 54.11  .16496 1.1619 157.1 22.6  198  93
2026 09 05 20  21 45 11.162   +07 23 04.11  .16476 1.1618 157.2 22.6  214  90
2026 09 05 21  21 45 22.400   +07 17 13.20  .16456 1.1617 157.3 22.6  231  87
2026 09 05 22  21 45 33.665   +07 11 21.37  .16437 1.1616 157.4 22.6  248  83
2026 09 05 23  21 45 44.956   +07 05 28.63  .16417 1.1614 157.4 22.6  267  79
2026 09 06 00  21 45 56.274   +06 59 34.98  .16398 1.1613 157.5 22.6  286  75
2026 09 06 01  21 46 07.618   +06 53 40.43  .16378 1.1612 157.6 22.6  307  71
2026 09 06 02  21 46 18.988   +06 47 44.96  .16359 1.1611 157.7 22.6  330  66
2026 09 06 03  21 46 30.385   +06 41 48.58  .16339 1.1610 157.7 22.6  355  61
2026 09 06 04  21 46 41.809   +06 35 51.29  .16320 1.1608 157.8 22.6  382  57
2026 09 06 05  21 46 53.259   +06 29 53.09  .16301 1.1607 157.9 22.6  411  53
2026 09 06 06  21 47 04.736   +06 23 53.99  .16282 1.1606 158.0 22.6  442  50
2026 09 06 07  21 47 16.240   +06 17 53.98  .16263 1.1605 158.1 22.6  475  48
2026 09 06 08  21 47 27.770   +06 11 53.06  .16244 1.1604 158.1 22.6  510  45
2026 09 06 09  21 47 39.328   +06 05 51.23  .16225 1.1602 158.2 22.6  546  43
2026 09 06 10  21 47 50.912   +05 59 48.50  .16206 1.1601 158.3 22.6  584  42
2026 09 06 11  21 48 02.523   +05 53 44.87  .16188 1.1600 158.4 22.6  624  40
2026 09 06 12  21 48 14.161   +05 47 40.33  .16169 1.1599 158.4 22.6  665  39
2026 09 06 13  21 48 25.825   +05 41 34.89  .16150 1.1598 158.5 22.6  708  38
2026 09 06 14  21 48 37.517   +05 35 28.54  .16132 1.1596 158.6 22.6  752  37
2026 09 06 15  21 48 49.236   +05 29 21.30  .16114 1.1595 158.7 22.5  798  36
2026 09 06 16  21 49 00.982   +05 23 13.15  .16095 1.1594 158.7 22.5  846  36
2026 09 06 17  21 49 12.755   +05 17 04.11  .16077 1.1593 158.8 22.5  895  35
2026 09 06 18  21 49 24.556   +05 10 54.16  .16059 1.1592 158.9 22.5  945  35
2026 09 06 19  21 49 36.383   +05 04 43.32  .16041 1.1591 158.9 22.5  997  34
2026 09 06 20  21 49 48.238   +04 58 31.58  .16022 1.1589 159.0 22.5 1051  34
2026 09 06 21  21 50 00.121   +04 52 18.95  .16005 1.1588 159.1 22.5 1106  33
2026 09 06 22  21 50 12.030   +04 46 05.42  .15987 1.1587 159.2 22.5 1163  33
2026 09 06 23  21 50 23.967   +04 39 51.01  .15969 1.1586 159.2 22.5 1221  33
2026 09 07 00  21 50 35.931   +04 33 35.69  .15951 1.1585 159.3 22.5 1280  32
2026 09 07 01  21 50 47.923   +04 27 19.49  .15933 1.1584 159.4 22.5 1342  32
2026 09 07 02  21 50 59.942   +04 21 02.40  .15916 1.1582 159.5 22.5 1404  32
2026 09 07 03  21 51 11.989   +04 14 44.43  .15898 1.1581 159.5 22.5 1469  32
2026 09 07 04  21 51 24.064   +04 08 25.56  .15881 1.1580 159.6 22.5 1534  31
2026 09 07 05  21 51 36.166   +04 02 05.82  .15863 1.1579 159.7 22.5 1602  31
2026 09 07 06  21 51 48.296   +03 55 45.19  .15846 1.1578 159.8 22.5 1671  31
2026 09 07 07  21 52 00.453   +03 49 23.67  .15829 1.1577 159.8 22.5 1741  31
2026 09 07 08  21 52 12.639   +03 43 01.28  .15812 1.1576 159.9 22.5 1813  31
2026 09 07 09  21 52 24.852   +03 36 38.01  .15795 1.1574 160.0 22.5 1887  31
2026 09 07 10  21 52 37.093   +03 30 13.87  .15778 1.1573 160.0 22.5 1962  30